Anniston, AL

5:24 PM CDT on October 19, 2017 (GMT -0500)
Anniston Metro

Weather History for KANB - December, 2013

Change the Weather History Date:

Wednesday, December 18, 2013

  Actual Average Record
Temperature  
Mean Temperature 43 °F 45 °F  
Max Temperature 56 °F 55 °F 76 °F (1984)
Min Temperature 29 °F 35 °F 16 °F (1953)
Degree Days  
Heating Degree Days 22    
Month to date heating degree days 298  
Since 1 July heating degree days 827  
Moisture  
Dew Point 26 °F    
Average Humidity 54    
Maximum Humidity 85    
Minimum Humidity 22    
Precipitation  
Precipitation 0.00 in 0.13 in 2.23 in (2009)
Month to date precipitation 5.13 2.53  
Year to date precipitation 71.19 48.08  
Sea Level Pressure  
Sea Level Pressure 30.34 in    
Wind  
Wind Speed 3 mph (NNE)    
Max Wind Speed 10 mph    
Max Gust Speed 13 mph    
Visibility 10 miles    
Events      
T = Trace of Precipitation, MM = Missing Value Source: NWS Daily Summary

Daily Weather History Graph

Daily Weather History Graph

Search for Another Location

Airport or City:

Trip Planner

Search our weather history database for the weather conditions in past years. The results will help you decide how hot, cold, wet, or windy it might be!

Date:

Astronomy

Dec. 18, 2013 Rise Set
Actual Time 6:42 AM CST 4:38 PM CST
Civil Twilight 6:14 AM CST 5:05 PM CST
Nautical Twilight 5:43 AM CST 5:36 PM CST
Astronomical Twilight 5:13 AM CST 6:07 PM CST
Moon 6:05 PM CST (12/18) 7:25 AM CST (12/18)
Length of Visible Light 10h 50m
Length of Day
9h 55m
Full, 98% of the Moon is Illuminated
Dec 18
Full
Dec 25
Last Quarter
Jan 1
New
Jan 7
First Quarter
Jan 15
Full

Hourly Weather History & Observations

Time (CST) Temp. Windchill Dew Point Humidity Pressure Visibility Wind Dir Wind Speed Gust Speed Precip Events Conditions
12:53 AM 46.0 °F - 28.0 °F 50% 30.29 in 10.0 mi North - - N/A   Clear
1:53 AM 39.0 °F - 28.9 °F 67% 30.30 in 10.0 mi Calm Calm - N/A   Clear
2:53 AM 35.1 °F - 28.9 °F 78% 30.30 in 10.0 mi Calm Calm - N/A   Clear
3:53 AM 34.0 °F 29.8 °F 28.9 °F 82% 30.32 in 10.0 mi NE 4.6 mph - N/A   Clear
4:53 AM 36.0 °F 31.1 °F 28.0 °F 73% 30.33 in 10.0 mi ENE 5.8 mph - N/A   Clear
5:53 AM 32.0 °F - 26.1 °F 79% 30.35 in 10.0 mi Calm Calm - N/A   Clear
6:53 AM 30.0 °F 25.2 °F 26.1 °F 85% 30.37 in 10.0 mi West 4.6 mph - N/A   Clear
7:53 AM 35.1 °F - 30.0 °F 82% 30.39 in 10.0 mi Calm Calm - N/A   Clear
8:53 AM 43.0 °F 38.8 °F 23.0 °F 45% 30.41 in 10.0 mi NE 6.9 mph - N/A   Clear
9:53 AM 46.0 °F 41.4 °F 19.9 °F 35% 30.41 in 10.0 mi NNE 9.2 mph - N/A   Clear
10:53 AM 48.9 °F - 21.0 °F 33% 30.40 in 10.0 mi NE 6.9 mph - N/A   Clear
11:53 AM 52.0 °F - 21.0 °F 30% 30.37 in 10.0 mi North 6.9 mph - N/A   Clear
12:53 PM 54.0 °F - 18.0 °F 24% 30.35 in 10.0 mi NW 5.8 mph - N/A   Clear
1:53 PM 55.0 °F - 17.1 °F 23% 30.33 in 10.0 mi North - - N/A   Clear
2:53 PM 55.0 °F - 17.1 °F 23% 30.32 in 10.0 mi NE 4.6 mph - N/A   Clear
3:53 PM 54.0 °F - 17.1 °F 23% 30.32 in 10.0 mi Calm Calm - N/A   Clear
4:33 PM 48.0 °F - 27.0 °F 44% 30.30 in 10.0 mi Calm Calm - N/A   Partly Cloudy
4:53 PM 43.0 °F - 28.9 °F 58% 30.33 in 10.0 mi Calm Calm - N/A   Clear
5:53 PM 41.0 °F - 30.9 °F 67% 30.32 in 10.0 mi Calm Calm - N/A   Clear
6:53 PM 37.9 °F - 30.0 °F 73% 30.33 in 10.0 mi Calm Calm - N/A   Clear
7:53 PM 35.1 °F - 28.9 °F 78% 30.34 in 10.0 mi Calm Calm - N/A   Clear
8:53 PM 34.0 °F - 28.9 °F 82% 30.33 in 10.0 mi Calm Calm - N/A   Clear
9:53 PM 34.0 °F - 28.9 °F 82% 30.33 in 10.0 mi Calm Calm - N/A   Clear
10:53 PM 33.1 °F - 28.0 °F 82% 30.32 in 10.0 mi Calm Calm - N/A   Clear
11:53 PM 32.0 °F - 28.0 °F 85% 30.31 in 10.0 mi Calm Calm - N/A   Clear